Olathe, KS

10:36 PM CDT on April 21, 2018 (GMT -0500)
Johnson County Executive

Weather History for KOJC - January, 2013

Change the Weather History Date:

Wednesday, January 9, 2013

  Actual Average Record
Temperature  
Mean Temperature 43 °F 30 °F  
Max Temperature 54 °F 39 °F 60 °F (1939)
Min Temperature 31 °F 21 °F -7 °F (1973)
Degree Days  
Heating Degree Days 22 35  
Month to date heating degree days 302 315  
Since 1 July heating degree days 2100 2280  
Cooling Degree Days 0 0  
Month to date cooling degree days 0 0  
Year to date cooling degree days 0 0  
Moisture  
Dew Point 30 °F    
Average Humidity 62    
Maximum Humidity 82    
Minimum Humidity 41    
Precipitation  
Precipitation 0.00 in 0.02 in 0.45 in (1987)
Month to date precipitation T 0.26  
Year to date precipitation T 0.26  
Sea Level Pressure  
Sea Level Pressure 30.35 in    
Wind  
Wind Speed 5 mph (ENE)    
Max Wind Speed 12 mph    
Max Gust Speed 17 mph    
Visibility 10 miles    
Events      
T = Trace of Precipitation, MM = Missing Value Source: NWS Daily Summary

Daily Weather History Graph

Daily Weather History Graph

Search for Another Location

Airport or City:

Astronomy

Jan. 09, 2013 Rise Set
Actual Time 7:37 AM CST 5:15 PM CST
Civil Twilight 7:07 AM CST 5:44 PM CST
Nautical Twilight 6:34 AM CST 6:17 PM CST
Astronomical Twilight 6:02 AM CST 6:50 PM CST
Moon 5:17 AM CST (1/9) 3:17 PM CST (1/9)
Length of Visible Light 10h 36m
Length of Day
9h 38m
Waning Crescent, 6% of the Moon is Illuminated
Jan 9
Waning Crescent
Jan 11
New
Jan 18
First Quarter
Jan 26
Full
Feb 3
Last Quarter

Hourly Weather History & Observations

Time (CST) Temp. Windchill Dew Point Humidity Pressure Visibility Wind Dir Wind Speed Gust Speed Precip Events Conditions
12:53 AM 36.0 °F 32.1 °F 30.0 °F 79% 30.23 in 10.0 mi West 4.6 mph - N/A   Clear
1:53 AM 35.1 °F 32.2 °F 28.0 °F 76% 30.23 in 10.0 mi WNW 3.5 mph - N/A   Clear
2:53 AM 34.0 °F 29.8 °F 28.0 °F 79% 30.27 in 10.0 mi West 4.6 mph - N/A   Clear
3:53 AM 34.0 °F - 28.0 °F 79% 30.27 in 10.0 mi Calm Calm - N/A   Clear
4:53 AM 33.1 °F 26.1 °F 27.0 °F 78% 30.29 in 10.0 mi NW 8.1 mph - N/A   Clear
5:53 AM 34.0 °F 27.2 °F 28.0 °F 79% 30.29 in 10.0 mi NNW 8.1 mph - N/A   Clear
6:53 AM 34.0 °F 27.2 °F 28.0 °F 79% 30.32 in 10.0 mi North 8.1 mph - N/A   Clear
7:53 AM 35.1 °F 32.2 °F 27.0 °F 72% 30.37 in 10.0 mi North 3.5 mph - N/A   Clear
8:53 AM 36.0 °F - 28.9 °F 76% 30.40 in 10.0 mi Calm Calm - N/A   Clear
9:53 AM 39.9 °F 35.8 °F 30.9 °F 70% 30.43 in 10.0 mi South 5.8 mph - N/A   Clear
10:53 AM 44.1 °F - 32.0 °F 63% 30.41 in 10.0 mi Calm Calm - N/A   Clear
11:53 AM 46.9 °F - 32.0 °F 56% 30.41 in 10.0 mi Calm Calm - N/A   Clear
12:53 PM 50.0 °F - 32.0 °F 50% 30.38 in 10.0 mi Calm Calm - N/A   Clear
1:53 PM 51.1 °F - 30.9 °F 46% 30.37 in 10.0 mi Variable 3.5 mph - N/A   Clear
2:53 PM 53.1 °F - 30.9 °F 43% 30.37 in 10.0 mi Calm Calm - N/A   Clear
3:53 PM 52.0 °F - 30.9 °F 45% 30.39 in 10.0 mi ESE 4.6 mph - N/A   Clear
4:53 PM 50.0 °F - 32.0 °F 50% 30.39 in 10.0 mi SE 3.5 mph - N/A   Clear
5:53 PM 46.9 °F - 32.0 °F 56% 30.39 in 10.0 mi ESE 4.6 mph - N/A   Clear
6:53 PM 45.0 °F 41.8 °F 30.9 °F 58% 30.39 in 10.0 mi East 5.8 mph - N/A   Clear
7:53 PM 43.0 °F 39.5 °F 30.0 °F 60% 30.39 in 10.0 mi ENE 5.8 mph - N/A   Clear
8:53 PM 44.1 °F 39.5 °F 28.9 °F 55% 30.39 in 10.0 mi East 8.1 mph - N/A   Clear
9:53 PM 44.1 °F 38.6 °F 30.0 °F 58% 30.38 in 10.0 mi ESE 10.4 mph - N/A   Clear
10:53 PM 42.1 °F 37.1 °F 28.0 °F 58% 30.35 in 10.0 mi East 8.1 mph - N/A   Clear
11:53 PM 44.1 °F 39.5 °F 26.1 °F 49% 30.33 in 10.0 mi East 8.1 mph - N/A   Clear